Location: Cudham
(51.3000°N, 0.0667°E)
Time: 23:38:50
(UTC+00:00)

Cosmos 468 Rocket - Pass Details

Date: 15 May 2026
Orbit: 740 x 773 km, 74.0° (Epoch: 11 June)

Event Time Altitude Azimuth Distance (km) Brightness Sun altitude
Exits shadow 22:30:15 27° 182° (S) 1,445 4.9 -17.2°
Maximum altitude 22:33:03 64° 109° (ESE) 857 4.0 -17.3°
Drops below altitude 10° 22:38:14 10° 30° (NNE) 2,315 7.0 -17.6°
Sets 22:40:38 0° 27° (NNE) 3,240 7.9 -17.7°
